Location: Quail Creek Observatory
(32.9410°N, 97.1240°W)
Time: 07:53:18
(UTC-05:00)

Daily predictions for brighter satellites

Satellite Brightness Start Highest point End
(mag) Time Altitude Azimuth Time Altitude Azimuth Time Altitude Azimuth
DELTA 2 R/B (1) 4.2 19:08:01 10° WNW 19:13:20 44° N 19:18:41 10° E
Cosmos 1500 Rocket 4.0 19:12:11 10° NNE 19:16:13 37° E 19:20:13 10° SSE
CZ-4 R/B 1.5 19:12:22 10° SSE 19:16:36 90° WNW 19:20:47 10° NNW
Cosmos 1626 2.1 19:17:49 10° N 19:21:31 59° E 19:25:11 10° SSE
ALOS 3.2 19:19:36 10° SE 19:23:30 27° ENE 19:27:25 10° NNE
Cosmos 1624 Rocket 4.3 19:20:06 10° NNW 19:25:19 73° WSW 19:30:32 10° S
Cosmos 2366 rocket 4.3 19:21:19 10° S 19:27:32 76° W 19:33:44 10° N
Cosmos 1300 4.5 19:29:33 10° ESE 19:31:16 13° E 19:31:27 13° E
MONITOR-E 4.3 19:28:32 10° SSE 19:31:31 49° ENE 19:34:30 10° N
APEX 3.0 19:28:49 10° S 19:32:15 47° ESE 19:35:08 10° NE
Hubble Space Telescope 3.0 19:34:37 10° S 19:36:26 13° SSE 19:38:14 10° SE
Cosmos 2360 Rocket 2.3 19:30:54 10° NNW 19:36:28 57° ENE 19:42:01 10° SE
Cosmos 158 Rocket 3.9 19:31:49 10° S 19:36:43 60° ESE 19:41:47 10° NNE
Abrixas 1.5 19:35:05 10° SW 19:37:14 69° SE 19:38:32 21° ENE
COSMOS 2428 3.7 19:35:14 10° N 19:39:54 26° ENE 19:44:03 12° ESE
COSMO-SKYMED 1 2.8 19:35:54 10° N 19:40:15 76° WNW 19:44:34 10° SSW
Thor Agena Rocket 4.0 19:35:41 10° NNE 19:40:21 37° E 19:44:59 10° SSE
Cosmos 2333 Rocket 3.8 19:39:54 10° NNE 19:42:50 14° NE 19:43:38 14° ENE
Cosmos 2219 3.4 19:37:44 10° S 19:43:14 49° ESE 19:48:44 10° NNE
Cosmos 2322 Rocket 3.5 19:39:14 10° NW 19:44:31 44° WSW 19:49:48 10° S
Cosmos 1805 Rocket 4.2 19:50:55 10° NNE 19:54:50 31° E 19:58:46 10° SE
Cosmos 2297 Rocket 4.0 19:51:44 10° SE 19:52:50 13° ESE 19:52:50 13° ESE
Cosmos 1315 Rocket 2.7 19:51:22 10° N 19:55:28 72° E 19:59:34 10° SSE
Centaur D AC-29 2.8 19:43:11 10° WSW 19:56:21 48° S 19:59:13 19° ESE
FENGYUN 3A 3.6 19:51:11 10° SSE 19:56:29 62° ENE 20:01:48 10° N
Cosmos 44 3.1 19:52:08 10° SSW 19:56:31 80° WNW 20:00:52 10° NNE
YAOGAN 1 4.1 19:54:57 10° S 19:59:00 40° W 20:03:04 10° NNW
Tiangong 1 3.8 19:57:58 10° WSW 19:59:08 12° SW 20:00:17 10° SSW
Cosmos 1821 Rocket 3.9 19:58:08 10° S 20:04:11 66° E 20:10:21 10° NNE
Cosmos 1934 Rocket 4.1 20:01:48 10° SSE 20:07:54 52° E 20:14:04 10° NNE
OAO 1 Rocket 4.5 20:03:04 10° W 20:08:22 74° N 20:10:58 30° ENE
Cosmos 1000 Rocket 4.4 20:02:51 10° N 20:09:01 64° E 20:15:07 10° SSE
Cosmos 2322 3.7 20:03:41 10° NNW 20:09:26 88° ENE 20:15:07 10° SSE
Cosmos 2151 4.3 20:06:26 10° NNW 20:10:28 41° W 20:14:26 10° SSW
Cosmos 1269 Rocket 4.0 20:05:13 10° SSW 20:10:28 90° WNW 20:15:47 10° NNE
Cosmos 2239 Rocket 4.3 20:05:16 10° S 20:11:22 77° E 20:17:30 10° N
SPOT 3 Rocket 4.1 20:07:14 10° S 20:12:21 61° WSW 20:17:31 10° NNW
Centaur AC-112 3.3 20:06:08 10° WSW 20:13:02 35° S 20:14:08 27° SSE
ASTRO E2 2.8 20:11:30 10° W 20:15:28 63° S 20:16:30 44° SE
USA 267 3.3 20:12:42 20° NE 20:17:23 62° SE 20:23:49 10° SSW
RESURS DK-1 3.1 20:14:32 10° NNW 20:18:33 53° WSW 20:22:33 10° S
Cosmos 44 Rocket 4.1 20:15:54 10° SW 20:20:26 47° WNW 20:24:59 10° NNE
Cosmos 1726 2.2 20:17:22 10° S 20:21:04 77° W 20:24:46 10° N
Cosmos 2219 Rocket 2.7 20:19:54 10° N 20:25:02 37° ENE 20:25:02 37° ENE
Meteor 2-10 3.8 20:20:26 10° S 20:25:24 67° E 20:30:26 10° NNE
Cosmos 2098 Rocket 3.6 20:23:41 10° SSW 20:27:44 64° W 20:32:58 10° N
Cosmos 1452 Rocket 4.5 20:25:57 10° NNW 20:30:59 47° WSW 20:35:59 10° S
PSLV R/B 4.1 20:27:55 10° WSW 20:30:07 42° SW 20:30:07 42° SW
Delta 2 Rocket 3.5 20:30:02 10° WNW 20:33:10 50° NNW 20:33:10 50° NNW
Cosmos 2221 4.4 20:30:21 10° SW 20:34:11 32° W 20:38:05 10° NNW
Atlas Centaur 2 2.6 20:31:15 10° W 20:35:56 49° SSW 20:37:32 38° SSE
Cosmos 1605 Rocket 3.8 20:32:27 10° S 20:38:28 62° E 20:44:29 10° NNE
Cosmos 2123 Rocket 3.9 20:32:22 10° N 20:38:34 62° E 20:42:54 21° SSE
Gbstr 26 Del rocket 4.5 20:35:54 10° NNW 20:40:52 36° NE 20:40:52 36° NE
H-2A R/B 2.9 20:42:45 69° WNW 20:42:45 69° WNW 20:46:29 10° NNW
Cosmos 2333 4.1 20:39:24 10° NNW 20:45:10 89° WSW 20:47:32 38° SSE
Cosmos 494 Rocket 3.8 20:41:13 10° S 20:46:06 74° SE 20:46:06 74° SE
CZ-4C R/B 3.3 20:43:56 10° WSW 20:48:41 39° NW 20:53:44 11° NNE
In-Cosmos 22 Rocket 4.2 20:51:57 10° N 20:57:08 69° NNE 20:57:08 69° NNE
Cosmos 2237 Rocket 3.7 20:52:38 10° N 20:55:03 23° NNE 20:55:03 23° NNE
DELTA 2 R/B (1) 3.5 20:54:34 10° WNW 20:59:55 81° NW 20:59:55 81° NW
Cosmos 2227 Rocket 2.4 20:54:51 10° SSW 20:59:24 59° S 20:59:24 59° S
IUS-9 SRM-1 4.4 20:53:23 10° WSW 21:12:56 45° S 21:13:27 44° S
Hubble Space Telescope 3.5 21:13:27 10° SW 21:14:05 13° SW 21:14:05 13° SW
COSMOS 2428 4.0 21:19:02 10° NW 21:24:10 36° WSW 21:26:11 28° SW
Cosmos 2333 Rocket 3.2 21:21:54 10° NNW 21:25:41 42° NW 21:25:41 42° NW
Cosmos 2297 Rocket 4.0 21:32:46 10° SW 21:34:46 22° SW 21:34:46 22° SW
USA 267 4.5 22:00:06 34° NW 22:00:06 34° NW 22:05:49 10° W
Cosmos 2219 Rocket 4.4 22:04:21 10° NW 22:06:49 20° WNW 22:06:49 20° WNW
